Home   Weather   Troy   Past weeks
Flag for USA

Past Weather in Troy, Michigan, USA — Yesterday and Last 2 Weeks

Now
26 °F

Heavy snow. Low clouds.


Feels Like: 17 °F
Forecast: 38 / 26 °F
Wind: 10 mph from East

Location: Troy, Oakland/Troy Airport

Current Time: Jan 18, 2020 at 3:44:00 am

Latest Report: Jan 18, 2020 at 2:55 am


Visibility: 0 mi

Pressure: 30.32 "Hg (27.58 "Hg at 748m altitude)

Humidity: 97%

Dew Point: 26 °F

Location of TroyLocation

Past Weather in Troy — Graph

°F

Troy Temperature Yesterday

Maximum temperature yesterday: 26 °F (at 7:15 pm)
Minimum temperature yesterday: 19 °F (at 7:55 am)
Average temperature yesterday: 23 °F

High & Low Weather Summary for the Past Weeks

 TemperatureHumidityPressure
High53 °F (Jan 11, 5:55 am)100% (Jan 10, 11:35 am)30.84 "Hg (Jan 10, 11:35 am)
Low17 °F (Jan 8, 10:15 pm)18% (Jan 7, 2:36 pm)29.67 "Hg (Jan 11, 11:55 pm)
Average34 °F79%30.13 "Hg
* Reported Jan 3 2:15 am — Jan 18 2:36 am, Troy. Weather by CustomWeather, © 2020

Note: Actual official high and low records may vary slightly from our data, if they occured in-between our weather recording intervals... More about our weather records

Troy Weather History for the Previous 24 Hours

Scroll right to see more
 ConditionsComfort  
Time TempWeatherWind HumidityBarometerVisibility
2:36 am
Sat, Jan 18
26 °FLight snow. Low clouds.10 mph96%30.34 "Hg1 mi
2:15 am26 °FLight snow. Low clouds.8 mph97%30.35 "Hg1 mi
1:55 am26 °FLight snow. Low clouds.8 mph98%30.37 "Hg1 mi
1:35 am25 °FHeavy snow. Low clouds.7 mph97%30.38 "Hg1 mi
1:16 am25 °FHeavy snow. Low clouds.12 mph96%30.41 "Hg1 mi
12:55 am25 °FHeavy snow. Low clouds.8 mph94%30.44 "Hg1 mi
12:35 am25 °FLight snow. Mostly cloudy.9 mph89%30.46 "Hg1 mi
12:15 am25 °FLight snow. Mostly cloudy.10 mph82%30.47 "Hg4 mi
11:56 pm
Fri, Jan 17
25 °FMostly cloudy.9 mph80%30.51 "Hg10 mi
11:36 pm25 °FMostly cloudy.8 mph80%30.52 "Hg10 mi
11:16 pm25 °FOvercast.5 mph80%30.52 "Hg10 mi
10:55 pm25 °FOvercast.9 mph79%30.53 "Hg10 mi
10:35 pm25 °FMostly cloudy.8 mph80%30.55 "Hg10 mi
10:16 pm25 °FMostly cloudy.5 mph78%30.58 "Hg10 mi
9:55 pm25 °FOvercast.6 mph79%30.59 "Hg10 mi
9:35 pm25 °FOvercast.10 mph78%30.58 "Hg10 mi
9:15 pm26 °FOvercast.12 mph78%30.60 "Hg10 mi
7:55 pm26 °FOvercast.6 mph76%30.65 "Hg10 mi
7:35 pm26 °FOvercast.6 mph76%30.66 "Hg10 mi
7:15 pm26 °FOvercast.3 mph75%30.66 "Hg10 mi
6:55 pm26 °FOvercast.3 mph75%30.66 "Hg10 mi
6:35 pm25 °FOvercast.5 mph74%30.66 "Hg10 mi
6:15 pm25 °FOvercast.6 mph73%30.67 "Hg10 mi
5:55 pm25 °FOvercast.6 mph72%30.67 "Hg10 mi
5:35 pm25 °FOvercast.6 mph70%30.67 "Hg10 mi
5:15 pm24 °FPartly sunny.5 mph69%30.67 "Hg10 mi
4:55 pm24 °FPartly sunny.8 mph70%30.68 "Hg10 mi
4:36 pm24 °FPartly sunny.8 mph69%30.68 "Hg10 mi
4:15 pm25 °FOvercast.8 mph68%30.69 "Hg10 mi
3:35 pm25 °FOvercast.6 mph68%30.71 "Hg10 mi
2:56 pm25 °FOvercast.8 mph67%30.72 "Hg10 mi
2:35 pm25 °FPartly sunny.3 mph66%30.73 "Hg10 mi
2:15 pm25 °FOvercast.7 mph65%30.74 "Hg10 mi
1:55 pm25 °FPartly sunny.6 mph65%30.74 "Hg10 mi
1:36 pm26 °FScattered clouds.8 mph63%30.75 "Hg10 mi
1:15 pm26 °FScattered clouds.7 mph61%30.76 "Hg10 mi
12:55 pm26 °FScattered clouds.5 mph62%30.77 "Hg10 mi
12:35 pm25 °FSunny.7 mph61%30.78 "Hg10 mi
11:55 am24 °FPartly sunny.3 mph61%30.82 "Hg10 mi
11:35 am24 °FPartly sunny.3 mph60%30.83 "Hg10 mi
11:16 am24 °FScattered clouds.5 mph60%30.84 "Hg10 mi
10:56 am24 °FScattered clouds.8 mph59%30.84 "Hg10 mi
10:35 am24 °FSunny.6 mph59%30.83 "Hg10 mi
10:16 am23 °FSunny.5 mph61%30.84 "Hg10 mi
9:56 am22 °FSunny.3 mph62%30.84 "Hg10 mi
8:56 am20 °FSunny.7 mph69%30.84 "Hg10 mi
8:35 am19 °FSunny.3 mph71%30.84 "Hg10 mi
8:15 am19 °FSunny.3 mph71%30.83 "Hg10 mi
7:55 am19 °FClear.6 mph73%30.83 "Hg10 mi
7:35 am20 °FClear.5 mph75%30.83 "Hg10 mi
6:55 am20 °FClear.6 mph72%30.83 "Hg10 mi
6:36 am20 °FPassing clouds.5 mph69%30.83 "Hg10 mi
6:15 am21 °FOvercast.7 mph69%30.83 "Hg10 mi
5:56 am21 °FOvercast.8 mph71%30.82 "Hg10 mi
5:36 am21 °FLight snow. Overcast.5 mph71%30.82 "Hg10 mi
5:15 am21 °FOvercast.5 mph74%30.82 "Hg10 mi
4:56 am21 °FOvercast.6 mph73%30.82 "Hg10 mi
4:35 am21 °FLight snow. Overcast.5 mph75%30.82 "Hg7 mi
3:55 am21 °FLight snow. Overcast.6 mph75%30.81 "Hg10 mi
3:35 am22 °FLight snow. Overcast.6 mph75%30.81 "Hg7 mi
3:15 am22 °FOvercast.5 mph74%30.80 "Hg10 mi
Weather by CustomWeather, © 2020

See weather overview

Advertising